This is the latest recevied weather packets stored in our database for station/object KB2FWP. If no packets are shown the sender has not sent any weather packets the latest 10 day(s).
| Time | Temp. | Humidity | Pressure | Rain* | Wind** | Luminosity | Snow |
|---|---|---|---|---|---|---|---|
| 1787549444 | 21.67° C | 81% | 1013.6 hPa | 0 mm | - | - | - |
| 1787548542 | 22.22° C | 81% | 1013.5 hPa | 0 mm | - | - | - |
| 1787547640 | 22.78° C | 80% | 1013.6 hPa | 0 mm | - | - | - |
| 1787546739 | 22.78° C | 78% | 1013.7 hPa | 0 mm | - | - | - |
| 1787545836 | 22.78° C | 77% | 1013.7 hPa | 0 mm | - | - | - |
| 1787544936 | 23.33° C | 76% | 1013.7 hPa | 0 mm | - | - | - |
| 1787544035 | 23.33° C | 76% | 1013.6 hPa | 0 mm | - | - | - |
| 1787543131 | 23.33° C | 75% | 1013.5 hPa | 0 mm | - | - | - |
| 1787542231 | 23.33° C | 75% | 1013.5 hPa | 0 mm | - | - | - |
| 1787541331 | 23.89° C | 75% | 1013.4 hPa | 0 mm | - | - | - |
| 1787540430 | 23.89° C | 74% | 1013.4 hPa | 0 mm | - | - | - |
| 1787539529 | 23.33° C | 74% | 1013.4 hPa | 0 mm | - | - | - |
| 1787538633 | 23.33° C | 75% | 1013.3 hPa | 0 mm | - | - | - |
| 1787537739 | 23.33° C | 74% | 1013.3 hPa | 0 mm | - | - | - |
| 1787536832 | 23.89° C | 80% | 1013.2 hPa | 0 mm | - | - | - |
| 1787535927 | 23.89° C | 82% | 1013.1 hPa | 0 mm | - | - | - |
| 1787535026 | 23.89° C | 83% | 1013.1 hPa | 0 mm | - | - | - |
| 1787534126 | 23.89° C | 85% | 1012.7 hPa | 0 mm | - | - | - |
| 1787533224 | 23.89° C | 84% | 1012.5 hPa | 0 mm | - | - | - |
| 1787532323 | 23.89° C | 87% | 1012.4 hPa | 0 mm | - | - | - |
| 1787531420 | 23.89° C | 86% | 1012.4 hPa | 0 mm | - | - | - |
| 1787530520 | 23.89° C | 87% | 1012 hPa | 0 mm | - | - | - |
| 1787529618 | 23.89° C | 88% | 1011.7 hPa | 0 mm | - | - | - |
| 1787528735 | 23.89° C | 88% | 1011.4 hPa | 0 mm | - | - | - |
| 1787527817 | 23.89° C | 89% | 1011.3 hPa | 0 mm | - | - | - |
* Rain latest hour (hover to see other rain measurements)
** Current wind speed in m/s (hover to see current wind gust speed)